Regional Weather Roundup
Issued by NWS

Home | Current Version | Previous Version | Graphics & Text | Print | Product List | Glossary On
Versions: 1 2 3 4 5 6 7 8 9 10 11 12 13 14 15 16 17 18 19 20 21 22 23 24 25 26 27 28 29 30 31 32 33 34 35 36 37 38 39 40 41 42 43 44 45 46 47 48 49 50
000
ASUS43 KMPX 280410
RWRMN
WEATHER ROUNDUP FOR MINNESOTA
NATIONAL WEATHER SERVICE TWIN CITIES/CHANHASSEN MN
1100 PM CDT THU APR 27 2017


NOTE: "FAIR" INDICATES FEW OR NO CLOUDS BELOW 12,000 FEET WITH NO
SIGNIFICANT WEATHER AND/OR OBSTRUCTIONS TO VISIBILITY. N/A MEANS
CURRENT SKY AND/OR WEATHER CONDITIONS ARE NOT AVAILABLE.

MNZ060>063-068>070-280500-
   Twin Cities Metro

CITY           SKY/WX    TMP DP  RH WIND       PRES   REMARKS
TWIN CITIES    CLOUDY    35  24  64 W12       29.77S WCI  27
ST PAUL        CLOUDY    35  25  66 W9        29.78R WCI  28
CRYSTAL        CLOUDY    34  23  64 W8        29.76R WCI  27
LAKEVILLE      CLOUDY    34  27  75 W8        29.78S WCI  27
EDEN PRAIRIE   CLOUDY    35  25  66 W8        29.77R WCI  29
SOUTH ST PAUL  CLOUDY    35  25  65 W8        29.78R WCI  29
LAKE ELMO      CLOUDY    34  27  75 W7        29.77S WCI  28
$$
MNZ001>005-007-008-013>017-022>024-027-028-280500-
   Northwest Minnesota

CITY           SKY/WX    TMP DP  RH WIND       PRES   REMARKS
BEMIDJI        CLOUDY    28  23  81 NW8       29.70R WCI  20
HALLOCK        MOCLDY    34  30  86 N8        29.80R WCI  27
ROSEAU         LGT SNOW  30  27  86 N10       29.75R WCI  21
WARROAD        CLOUDY    30  27  86 NW9       29.74R WCI  22
THIEF RVR FALL CLEAR     28  25  88 NW9       29.78R WCI  19
CROOKSTON      CLEAR     32  28  86 N9        29.81R WCI  24
FOSSTON        CLOUDY    28  25  86 NW14      29.76R WCI  17
DETROIT LAKES  CLOUDY    32  28  86 NW7       29.77R WCI  26
MOORHEAD       CLOUDY    36  30  80 NW6       29.80R
PARK RAPIDS    CLOUDY    31  22  69 W12       29.72R WCI  22
MAHNOMEN       CLOUDY    31  26  84 NW3       29.76R
$$
MNZ006-009>011-018-025>026-280500-
   North Central Minnesota

CITY           SKY/WX    TMP DP  RH WIND       PRES   REMARKS
BAUDETTE       CLOUDY    30  23  75 N10       29.68R WCI  21
FLAG ISLAND    CLOUDY    30  27  86 N21       29.71R WCI  17
INTL FALLS     CLOUDY    27  21  78 NW6       29.65R WCI  20
WASKISH        CLOUDY    28  25  86 NW10      29.70R WCI  19
BIG FORK       CLOUDY    27  21  80 CALM      29.67R
LONGVILLE      CLOUDY    30  21  69 NW13G18   29.70R WCI  20
GRAND RAPIDS   FLURRIES  27  22  81 NW14      29.69R WCI  16
CRANE LAKE     LGT SNOW  25  21  86 NW5       29.65R WCI  19
ORR            CLOUDY    25  21  86 W7        29.61R WCI  17
COOK           CLOUDY    27  21  80 W9        29.64R WCI  17
WALKER         CLOUDY    28  23  79 W8        29.71R WCI  20
$$
MNZ012-019>021-037-280500-
   Northeast Minnesota

CITY           SKY/WX    TMP DP  RH WIND       PRES   REMARKS
DULUTH         CLOUDY    28  22  78 W12       29.64R WCI  18
ELY            CLOUDY    25  21  86 W6        29.60R WCI  18
HIBBING        CLOUDY    26  19  74 NW7       29.65R WCI  18
EVELETH        MIX PCPN  28  20  73 W10       29.65R WCI  18
DULUTH HARBOR  CLOUDY    32  27  80 W16       29.69S WCI  21
TWO HARBORS    CLOUDY    30  23  74 W7        29.63R WCI  23
SILVER BAY     CLOUDY    28  25  86 SW3       29.61R
GRAND MARAIS     N/A     28  24  85 W8        29.61R WCI  20
G MARAIS ARPRT CLOUDY    21  18  86 CALM      29.54R
$$
MNZ029>031-032-039>041-046>048-054>057-064-280500-
   West Central Minnesota

CITY           SKY/WX    TMP DP  RH WIND       PRES   REMARKS
FERGUS FALLS   CLOUDY    34  28  80 CALM      29.79R
WHEATON        CLOUDY    37  30  75 W8        29.80R
MORRIS         CLOUDY    36  30  80 SW6       29.77S
ALEXANDRIA     CLOUDY    34  27  75 NW9       29.77R WCI  27
ELBOW LAKE     CLOUDY    34  31  87 N5        29.78R WCI  30
WADENA         CLOUDY    30  27  86 W5        29.75R WCI  25
GLENWOOD       CLOUDY    34  28  80 W6        29.77R WCI  29
APPLETON       CLOUDY    36  28  75 SW5       29.79S
BENSON         CLOUDY    37  28  70 W3        29.80R
ORTONVILLE     CLOUDY    36  28  75 SW5       29.80R
MADISON        MOCLDY    36  30  80 SW7       29.81R
WILLMAR        CLOUDY    34  30  86 SW5       29.80S WCI  30
$$
MNZ033>034-036-042>043-049>051-058-059-280500-
   Central Minnesota

CITY           SKY/WX    TMP DP  RH WIND       PRES   REMARKS
ST CLOUD       CLOUDY    33  26  75 W9        29.76R WCI  25
SAUK CENTRE    CLOUDY    32  28  83 W7        29.77R WCI  26
PAYNESVILLE    CLOUDY    33  27  79 W7        29.78R WCI  27
AITKIN         CLOUDY    32  21  64 W7G16     29.69R WCI  26
PINE RIVER     CLOUDY    28  23  80 W3        29.75R
BRAINERD       CLOUDY    30  24  78 W9        29.72R WCI  22
STAPLES        CLOUDY    28  25  86 W10       29.74R WCI  19
LONG PRAIRIE   CLOUDY    32  27  80 W7        29.75S WCI  26
LITTLE FALLS   CLOUDY    32  27  80 W7        29.74S WCI  26
LITCHFIELD     CLOUDY    36  28  75 W5        29.79R
BUFFALO        CLOUDY    34  26  74 W10       29.79R WCI  26
MAPLE LAKE     CLOUDY    35  28  78 W6        29.78R WCI  30
HUTCHINSON     CLOUDY    34  29  82 W9        29.81R WCI  27
$$
MNZ037-044-045-052-053-280500-
   East Central Minnesota

CITY           SKY/WX    TMP DP  RH WIND       PRES   REMARKS
PRINCETON      CLOUDY    34  27  75 W7        29.75R WCI  28
MORA           CLOUDY    32  25  74 W8        29.74R WCI  25
CAMBRIDGE      CLOUDY    36  25  64 SW5       29.73R
RUSH CITY      CLOUDY    32  24  73 W6        29.74R WCI  26
MOOSE LAKE     CLOUDY    30  27  86 W6        29.69R FOG     WCI  24
HINCKLEY       CLOUDY    32  30  93 SW5       29.72R WCI  27
CLOQUET        CLOUDY    28  23  80 W9        29.66S WCI  20
MCGREGOR       CLOUDY    30  27  86 W9        29.70R WCI  22
$$
MNZ071>073-080-081-089-090-097-098-280500-
   Southwest Minnesota

CITY           SKY/WX    TMP DP  RH WIND       PRES   REMARKS
MONTEVIDEO     CLOUDY    36  30  80 W7        29.80S
GRANITE FALLS  CLOUDY    35  30  83 S8        29.83R WCI  28
CANBY          CLOUDY    37  31  78 CALM      29.82S
MARSHALL       CLEAR     33  28  81 SW6       29.84R WCI  28
REDWOOD FALLS  CLOUDY    35  27  72 CALM      29.82R
OLIVIA         CLOUDY    34  32  93 SW5       29.80S WCI  30
PIPESTONE      CLEAR     34  27  75 CALM      29.82S
WINDOM         CLEAR     32  27  80 NW7       29.85R WCI  26
WORTHINGTON    CLEAR     30  28  92 NE3       29.85R
JACKSON        CLEAR     30  28  93 CALM      29.85R
TRACY          PTCLDY    33  30  90 CALM      29.84R
SLAYTON        CLEAR     30  27  88 CALM      29.84R
$$
MNZ065>067-074>077-082>085-091>093-280500-
   South Central Minnesota

CITY           SKY/WX    TMP DP  RH WIND       PRES   REMARKS
MANKATO        CLOUDY    34  26  72 W12G18    29.83R WCI  25
NEW ULM        MOCLDY    32  27  80 W5        29.83R WCI  27
ST JAMES       PTCLDY    34  28  80 W9        29.86R WCI  26
FAIRMONT       CLEAR     33  27  78 NW6       29.86R WCI  28
GLENCOE        CLOUDY    35  31  87 W5        29.80R WCI  31
FARIBAULT      CLOUDY    36  28  75 W10G18    29.81R
OWATONNA       CLOUDY    34  27  75 W10       29.81R WCI  26
WASECA         CLOUDY    34  28  80 W10       29.83R WCI  26
ALBERT LEA     CLOUDY    34  25  69 W15G21    29.83R WCI  24
$$
MNZ078>079-086>088-094>096-280500-
   Southeast Minnesota

CITY           SKY/WX    TMP DP  RH WIND       PRES   REMARKS
ROCHESTER      CLOUDY    32  27  81 W16       29.80R WCI  21
RED WING       CLOUDY    36  23  60 W13       29.78R
STANTON        CLOUDY    35  27  74 W8        29.78S WCI  28
DODGE CENTER   CLOUDY    34  27  75 W12G21    29.79R WCI  25
WINONA         CLOUDY    36  28  75 W10G17    29.80R
AUSTIN         CLOUDY    34  27  75 W9G17     29.82R WCI  26
PRESTON        CLOUDY    32  26  78 W14       29.81R WCI  22
$$
ABBREVIATIONS USED IN REMARKS
   TC - TEMPERATURES IN CELSIUS
  WCI - WIND CHILL INDEX
   HX - HEAT INDEX
  VSB - VISIBILITY
$$




USA.gov is the U.S. government's official web portal to all federal, state and local government web resources and services.